Tracking 28790 objects as of 19-Apr-2024
HD Live streaming from Space Station
objects crossing your sky now

FENGYUN 1C DEB

Track FENGYUN 1C DEB now!
10-day predictions


NORAD ID: 30453
Int'l Code: 1999-025AFQ
Perigee: 747.3 km
Apogee: 932.3 km
Inclination: 98.9 °
Period: 101.6 minutes
Semi major axis: 7210 km
RCS: 0.0229 m2 (small)
Launch date: May 10, 1999
Source: People's Republic of China (PRC)
Launch site: Taiyaun Space Center, China (TSC)

Note: This is SATELLITE DEBRIS
Your satellite tracking list
Your tracking list is empty




NASA's NSSDC Master Catalog

Two Line Element Set (TLE):
1 30453U 99025AFQ 24109.83237438  .00009368  00000-0  42452-2 0  9999
2 30453  98.8554 174.6676 0128335 161.7702 262.6551 14.17841110886679
Source of the keplerian elements: AFSPC